Temp
6 5 5 5 5 5 4 4 5 5 5 5 5 5 5 5 5 5 5 5 5 5 4 3 3 3 3 3 3 3 3 3 3 3 3 3 3 3 3 3 3 3 3 3 3 3 3 3 3 3 3 3 3 3 4 4 4 4 4 4 4 4 4 4 4 4 4 4 3 3 3 3 3 3 3 3 3 4 4 4 4 4 4 4 4 4
5 5 4 4 4 5 4 4 4 5 5 5 5 5 5 5 5 5 5 5 5 5 4 3 2 2 2 3 3 3 3 3 3 3 3 3 3 3 3 3 3 3 3 2 2 3 3 3 3 3 3 3 3 3 3 3 3 3 3 3 3 3 3 3 3 3 3 3 3 3 3 3 3 3 3 3 3 3 3 3 3 3 3 4 4 4
4 4 4 4 4 4 4 4 4 4 5 5 5 5 5 5 5 4 4 4 4 4 4 3 2 2 2 2 2 2 2 2 2 2 2 2 2 3 3 3 3 2 2 2 2 2 2 2 2 2 2 2 2 2 2 2 2 2 2 3 3 2 2 2 2 2 2 3 2 2 2 2 2 3 3 3 3 3 3 3 3 3 3 3 3 4
3 3 3 3 3 4 4 4 4 4 4 4 4 4 4 4 4 4 3 3 3 3 3 2 2 2 2 2 2 2 2 2 2 2 2 2 2 2 2 3 3 2 2 2 2 2 2 2 2 2 2 2 2 2 2 2 2 2 2 2 2 2 2 2 2 2 2 2 2 2 2 2 2 2 2 2 2 2 2 2 2 2 3 3 3 3
3 3 3 3 3 3 4 4 4 4 3 3 3 3 3 4 3 3 3 3 3 2 2 2 2 1 1 1 2 2 2 2 2 2 2 2 2 2 2 2 2 2 2 2 2 2 2 2 2 1 1 1 1 1 1 1 1 1 1 1 1 1 1 1 1 2 2 2 2 2 2 2 2 2 2 2 2 2 2 2 2 2 2 2 3 3
3 3 3 3 3 3 3 3 3 3 3 3 3 3 3 3 2 2 2 2 2 2 2 2 1 1 1 1 2 2 2 2 2 2 2 1 1 1 1 1 1 1 1 1 1 1 1 1 1 1 1 1 1 1 1 1 1 1 1 1 1 1 1 1 1 1 1 1 1 1 1 1 1 1 1 2 2 2 2 2 2 2 2 2 2 3
2 2 3 3 3 3 3 3 3 3 3 3 2 2 2 2 2 1 1 1 1 1 1 1 1 1 1 1 2 2 2 2 2 2 2 1 1 1 1 1 1 1 1 1 1 1 1 1 1 1 1 1 1 1 1 1 1 0 0 0 1 1 1 1 1 1 1 1 1 1 1 1 1 1 1 1 1 1 1 1 1 2 2 2 2 2
2 2 2 3 3 3 3 3 2 2 3 3 2 2 2 1 1 1 1 1 1 1 1 1 1 1 1 1 2 2 2 2 2 2 2 2 1 1 1 1 1 1 1 1 1 1 1 1 1 1 1 1 1 0 0 0 0 0 0 0 0 0 0 0 0 0 0 0 0 0 1 1 1 1 1 1 1 1 1 1 1 1 1 2 2 2
3 2 2 2 3 2 2 2 2 2 2 2 2 2 1 1 1 1 1 1 1 1 1 1 1 1 1 1 1 2 2 1 1 1 2 2 2 2 1 1 1 1 1 1 1 0 0 0 0 0 0 0 0 0 0 0 0 0 0 0 0 0 0 -0 -0 -0 -0 -0 -0 -0 -0 0 0 0 0 0 0 0 1 1 1 1 1 1 2 2
3 3 2 2 3 3 2 2 2 2 2 2 2 2 2 1 1 1 1 1 1 1 1 1 1 1 1 1 1 1 1 1 1 1 1 1 1 1 1 1 1 1 1 1 1 0 0 0 0 0 0 0 -0 0 0 0 0 0 0 0 -0 -0 -0 -0 -0 -0 -0 -0 -0 -0 -0 -0 -0 -0 -0 -0 -0 -0 0 0 0 1 1 1 1 1
3 3 2 2 2 2 2 2 2 2 2 2 2 1 1 1 1 1 1 1 1 1 1 1 1 1 1 1 1 1 1 1 1 1 1 1 1 1 1 1 1 1 1 1 1 1 0 0 0 -0 -0 -0 -0 -0 0 0 0 0 -0 -0 -0 -1 -1 -1 -1 -1 -1 -1 -1 -1 -1 -1 -1 -1 -1 -1 -0 -0 -0 -0 -0 0 0 1 1 1
2 2 2 2 2 2 2 2 2 2 1 1 1 1 1 1 1 1 1 1 1 1 1 1 1 1 1 1 1 1 1 1 1 1 1 1 1 1 1 1 1 1 1 1 1 0 0 0 0 -0 -0 -0 -0 -0 -0 -0 -0 -0 -0 -0 -1 -1 -1 -1 -1 -1 -1 -1 -1 -1 -1 -1 -1 -1 -1 -1 -1 -1 -0 -0 -0 -0 -0 0 0 1
2 2 2 2 2 2 2 2 2 1 1 1 1 1 1 1 1 1 1 2 2 1 1 1 1 1 0 1 1 1 1 1 1 1 1 1 1 1 1 1 1 1 1 0 0 0 0 0 -0 -0 -0 -0 -0 -0 -0 -0 -0 -0 -0 -1 -1 -1 -1 -1 -1 -1 -1 -1 -1 -1 -1 -1 -1 -1 -1 -1 -1 -1 -1 -1 -0 -0 -0 -0 -0 0
2 2 2 1 1 2 2 2 1 1 1 1 1 2 2 1 1 1 1 2 2 1 1 1 1 1 0 0 0 1 1 1 1 1 1 1 1 0 0 0 0 0 0 0 0 0 -0 -0 -0 -0 -0 -0 -0 -0 -0 -0 -0 -1 -1 -1 -1 -1 -1 -1 -1 -1 -2 -2 -2 -2 -2 -2 -2 -1 -1 -1 -1 -1 -1 -1 -1 -1 -1 -0 -0 0
1 1 1 1 1 1 1 2 2 1 1 1 1 2 2 2 1 1 1 1 1 1 1 1 1 1 0 0 0 0 0 0 0 0 0 0 0 0 0 0 -0 -0 -0 -0 -0 -0 -0 -0 -0 -0 -0 -0 -0 -0 -0 -1 -1 -1 -1 -1 -1 -1 -1 -1 -2 -2 -2 -2 -2 -2 -2 -2 -2 -2 -1 -1 -1 -1 -1 -1 -1 -1 -1 -1 -0 -0
2 2 2 1 1 1 1 2 2 2 2 2 2 2 2 1 1 1 1 1 1 1 1 0 0 0 0 0 0 0 0 0 0 0 0 0 0 -0 -0 -0 -0 -0 -0 -0 -0 -0 -0 -0 -0 -0 -0 -0 -0 -1 -1 -1 -1 -1 -1 -1 -1 -1 -2 -2 -2 -2 -2 -2 -2 -2 -2 -2 -2 -2 -2 -1 -1 -1 -1 -1 -1 -1 -1 -1 -1 -1
2 2 2 2 1 1 1 2 2 2 2 2 1 1 2 2 1 1 1 1 1 1 0 0 0 0 0 0 0 0 0 0 -0 -0 -0 -0 -0 -0 -0 -0 -1 -1 -1 -1 -0 -0 -0 -0 -0 -0 -0 -1 -1 -1 -1 -1 -1 -1 -1 -2 -2 -2 -2 -2 -2 -2 -2 -2 -2 -2 -2 -2 -2 -2 -2 -2 -2 -1 -1 -1 -1 -1 -1 -1 -1 -1
2 2 2 2 1 1 1 2 2 2 2 2 1 1 2 2 2 1 1 1 1 1 0 0 1 1 1 0 0 0 0 -0 -0 -0 -0 -0 -0 -0 -1 -1 -1 -1 -1 -1 -1 -0 -0 -0 -0 -1 -1 -1 -1 -1 -1 -1 -1 -2 -2 -2 -2 -2 -2 -2 -2 -2 -2 -2 -2 -2 -2 -2 -2 -2 -2 -2 -2 -2 -2 -2 -2 -1 -1 -1 -1 -1
2 2 2 2 2 2 2 2 2 2 2 2 2 2 2 1 1 1 1 1 1 1 1 0 1 1 1 1 0 0 0 -0 -0 -1 -1 -1 -1 -0 -1 -1 -1 -1 -1 -1 -1 -1 -1 -1 -1 -1 -1 -1 -1 -1 -1 -1 -2 -2 -2 -2 -2 -2 -2 -2 -2 -2 -2 -2 -2 -2 -2 -2 -2 -2 -2 -2 -2 -2 -2 -2 -2 -2 -1 -1 -1 -1
3 3 3 3 3 3 2 2 3 3 3 2 2 2 2 1 1 1 1 1 1 1 1 0 1 1 1 1 0 0 -0 -1 -1 -1 -1 -1 -1 -1 -1 -1 -1 -1 -1 -1 -1 -1 -1 -1 -1 -1 -1 -1 -1 -1 -2 -2 -2 -2 -2 -2 -2 -2 -2 -2 -2 -2 -2 -2 -2 -2 -2 -3 -3 -3 -2 -2 -2 -2 -2 -2 -2 -1 -1 -1 -1 -1
4 3 4 4 4 3 3 3 3 3 3 3 2 2 2 2 1 1 1 1 1 1 1 0 1 1 0 0 0 -0 -1 -1 -1 -2 -2 -2 -1 -1 -1 -1 -1 -1 -1 -1 -1 -1 -1 -1 -1 -1 -1 -2 -2 -2 -2 -2 -2 -2 -2 -2 -2 -2 -2 -2 -2 -2 -2 -2 -3 -3 -3 -3 -3 -3 -3 -3 -2 -2 -2 -2 -2 -2 -2 -1 -1 -1
4 4 4 4 4 4 4 4 3 3 3 3 2 2 2 2 1 1 1 1 1 1 1 1 1 0 -0 -0 -0 -1 -1 -1 -2 -2 -2 -2 -1 -1 -1 -1 -1 -1 -1 -1 -1 -1 -1 -1 -1 -2 -2 -2 -2 -2 -2 -2 -2 -2 -2 -2 -2 -2 -2 -2 -2 -2 -3 -3 -3 -3 -3 -3 -3 -3 -3 -3 -3 -3 -3 -2 -2 -2 -2 -2 -2 -2
3 3 3 3 3 3 3 3 3 3 2 2 2 2 2 2 2 2 2 1 1 1 1 0 0 -0 -0 -1 -1 -1 -1 -2 -2 -2 -2 -2 -1 -1 -1 -1 -1 -1 -1 -2 -2 -2 -2 -2 -2 -2 -2 -2 -2 -2 -2 -2 -2 -2 -2 -2 -2 -2 -2 -2 -2 -3 -3 -3 -3 -3 -3 -3 -3 -3 -3 -3 -3 -3 -3 -3 -3 -3 -2 -2 -2 -2
3 3 3 3 3 3 3 3 3 2 2 2 2 2 2 2 2 2 2 1 1 1 0 0 -0 -1 -1 -1 -1 -1 -2 -2 -2 -2 -2 -2 -1 -1 -2 -1 -1 -1 -1 -2 -2 -2 -2 -2 -2 -2 -2 -2 -2 -2 -2 -2 -2 -2 -2 -2 -2 -2 -2 -2 -2 -3 -3 -3 -3 -3 -3 -3 -3 -3 -3 -3 -3 -3 -3 -3 -3 -3 -3 -3 -3 -2
3 2 2 2 2 2 2 2 2 2 2 2 2 1 1 1 1 1 1 0 0 0 -0 -0 -1 -1 -1 -1 -1 -2 -2 -2 -2 -2 -2 -2 -2 -2 -2 -2 -1 -1 -1 -2 -2 -2 -2 -2 -2 -2 -2 -2 -2 -2 -2 -2 -2 -2 -2 -2 -2 -2 -2 -2 -3 -3 -2 -2 -2 -2 -3 -3 -3 -3 -3 -3 -3 -3 -3 -3 -3 -3 -3 -3 -3 -3
2 2 2 2 2 2 2 2 2 2 2 1 1 1 1 1 1 0 0 -0 -0 -0 -1 -1 -1 -1 -1 -2 -2 -2 -2 -2 -2 -2 -2 -2 -2 -2 -2 -2 -2 -1 -1 -2 -2 -2 -2 -2 -2 -2 -1 -2 -2 -2 -2 -2 -2 -2 -2 -3 -3 -3 -3 -2 -2 -2 -2 -2 -2 -3 -3 -3 -3 -3 -3 -3 -3 -3 -3 -3 -3 -3 -3 -3 -3 -3
2 2 2 2 2 2 2 2 2 1 1 1 1 1 1 1 0 0 -0 -0 -0 -1 -1 -1 -1 -1 -2 -2 -2 -2 -2 -2 -3 -3 -3 -2 -2 -2 -2 -2 -2 -2 -2 -2 -2 -2 -2 -2 -2 -1 -1 -2 -2 -2 -2 -3 -3 -3 -3 -3 -3 -3 -2 -2 -2 -2 -2 -2 -3 -3 -3 -3 -3 -3 -3 -3 -3 -3 -3 -3 -3 -3 -3 -3 -3 -3
1 1 1 1 1 1 1 1 1 1 1 1 0 0 0 0 0 0 -0 -0 -1 -1 -1 -1 -1 -1 -2 -2 -2 -2 -2 -2 -3 -3 -3 -3 -2 -2 -2 -2 -2 -2 -2 -2 -2 -2 -2 -2 -1 -1 -2 -2 -2 -2 -2 -2 -3 -3 -3 -3 -3 -2 -2 -2 -2 -2 -3 -3 -3 -3 -3 -3 -3 -3 -3 -3 -3 -3 -3 -3 -3 -3 -3 -3 -3 -3
0 0 0 -0 -0 0 0 0 0 0 0 0 0 -0 -0 -0 -0 -0 -0 -1 -1 -1 -1 -2 -2 -2 -2 -2 -2 -2 -2 -2 -3 -3 -3 -3 -3 -3 -3 -3 -3 -3 -2 -2 -2 -2 -2 -2 -2 -2 -2 -2 -3 -3 -3 -3 -3 -3 -3 -3 -2 -2 -2 -2 -3 -3 -3 -3 -3 -3 -3 -3 -3 -3 -3 -3 -3 -3 -3 -3 -3 -3 -3 -3 -3 -4
-0 -0 -0 -0 -1 -0 -0 -0 -0 -1 -1 -1 -1 -1 -1 -1 -1 -1 -1 -1 -1 -1 -1 -2 -2 -2 -3 -3 -3 -3 -3 -2 -2 -3 -3 -3 -3 -3 -3 -3 -3 -3 -3 -2 -2 -2 -2 -2 -2 -2 -3 -3 -3 -3 -3 -3 -3 -3 -3 -2 -2 -2 -2 -3 -3 -3 -3 -3 -3 -3 -3 -3 -3 -3 -3 -3 -3 -3 -3 -3 -3 -3 -3 -3 -4 -4
-0 -0 -1 -1 -1 -1 -1 -1 -1 -1 -1 -1 -1 -1 -1 -1 -1 -1 -1 -1 -1 -1 -1 -2 -2 -2 -3 -3 -3 -3 -3 -3 -3 -3 -3 -3 -3 -3 -3 -3 -3 -3 -3 -3 -2 -2 -3 -3 -3 -3 -3 -3 -3 -3 -3 -3 -3 -3 -3 -3 -3 -3 -3 -3 -3 -3 -3 -3 -3 -3 -3 -3 -3 -3 -3 -3 -3 -3 -3 -3 -3 -3 -3 -3 -4 -4
-1 -1 -1 -1 -1 -1 -1 -1 -1 -2 -2 -2 -2 -2 -2 -2 -2 -2 -2 -2 -2 -2 -2 -2 -2 -2 -3 -3 -2 -2 -3 -3 -3 -3 -3 -3 -3 -3 -3 -3 -3 -3 -3 -3 -3 -3 -5 -3 -3 -3 -3 -3 -3 -3 -3 -3 -3 -3 -3 -3 -3 -3 -3 -3 -3 -3 -3 -3 -3 -3 -3 -3 -3 -3 -3 -3 -3 -3 -3 -3 -3 -3 -3 -4 -4 -4
-1 -1 -1 -1 -2 -2 -2 -2 -2 -2 -2 -2 -2 -2 -2 -2 -2 -2 -2 -2 -2 -2 -2 -2 -2 -2 -3 -3 -3 -2 -2 -3 -3 -3 -3 -3 -3 -4 -4 -4 -3 -4 -4 -4 -3 -3 -4 -3 -3 -3 -3 -3 -3 -3 -3 -3 -3 -3 -3 -3 -3 -3 -3 -3 -3 -3 -3 -3 -3 -3 -3 -3 -3 -3 -3 -3 -3 -3 -3 -3 -3 -3 -3 -3 -4 -4
-2 -2 -2 -2 -2 -2 -2 -2 -2 -2 -2 -2 -2 -2 -3 -3 -3 -3 -3 -3 -2 -2 -2 -2 -2 -2 -3 -3 -3 -3 -3 -3 -3 -3 -4 -4 -3 -4 -4 -4 -4 -4 -4 -4 -4 -4 -4 -4 -3 -3 -3 -3 -3 -3 -3 -3 -3 -3 -3 -3 -3 -3 -3 -3 -3 -3 -3 -3 -3 -3 -3 -3 -3 -3 -3 -3 -3 -3 -3 -3 -4 -4 -3 -3 -3 -3
-2 -2 -2 -2 -2 -2 -2 -2 -2 -2 -2 -2 -2 -2 -3 -3 -3 -3 -3 -3 -3 -3 -3 -3 -3 -3 -3 -3 -3 -3 -3 -3 -3 -4 -4 -4 -4 -4 -4 -4 -4 -4 -4 -4 -4 -4 -4 -4 -4 -4 -4 -4 -3 -3 -3 -3 -3 -3 -3 -3 -3 -3 -3 -3 -3 -3 -3 -3 -3 -3 -3 -3 -3 -3 -3 -3 -3 -3 -3 -4 -4 -4 -4 -4 -4 -4
-2 -2 -2 -2 -2 -2 -2 -2 -2 -2 -2 -2 -2 -2 -3 -3 -3 -3 -3 -3 -3 -3 -3 -3 -3 -3 -3 -3 -3 -3 -3 -3 -4 -4 -4 -4 -4 -4 -4 -4 -4 -4 -4 -4 -4 -4 -4 -4 -4 -5 -4 -4 -4 -4 -3 -3 -3 -3 -3 -3 -3 -3 -3 -3 -3 -3 -3 -3 -3 -3 -3 -3 -3 -3 -3 -3 -3 -3 -3 -3 -3 -3 -3 -3 -4 -4
-3 -3 -3 -3 -3 -3 -3 -3 -3 -3 -3 -3 -3 -3 -3 -3 -3 -3 -3 -3 -3 -3 -3 -3 -3 -3 -3 -3 -3 -3 -3 -4 -4 -4 -4 -4 -4 -4 -4 -5 -5 -5 -4 -4 -5 -5 -5 -5 -5 -5 -5 -5 -5 -4 -4 -4 -4 -4 -4 -4 -4 -4 -4 -4 -3 -3 -3 -3 -3 -4 -4 -4 -4 -4 -4 -4 -4 -4 -3 -3 -3 -3 -3 -3 -3 -3
-3 -3 -3 -3 -3 -3 -3 -3 -3 -3 -3 -3 -3 -3 -3 -3 -3 -3 -3 -3 -3 -3 -3 -3 -3 -3 -3 -3 -3 -3 -4 -4 -4 -4 -4 -4 -4 -5 -5 -5 -5 -5 -5 -5 -5 -5 -5 -5 -5 -5 -5 -5 -5 -5 -4 -4 -4 -4 -4 -4 -4 -4 -4 -4 -4 -4 -4 -4 -4 -4 -4 -4 -4 -4 -4 -4 -4 -4 -4 -4 -3 -3 -3 -3 -3 -3
-3 -3 -3 -3 -3 -3 -3 -3 -3 -3 -3 -3 -3 -3 -3 -3 -3 -3 -3 -3 -3 -3 -3 -3 -3 -3 -3 -3 -4 -4 -4 -4 -4 -4 -4 -4 -5 -5 -5 -5 -5 -5 -5 -5 -5 -5 -5 -5 -5 -5 -5 -5 -5 -5 -5 -5 -5 -5 -5 -4 -4 -4 -4 -4 -4 -4 -4 -4 -4 -4 -4 -4 -4 -4 -4 -4 -4 -4 -4 -4 -4 -3 -3 -3 -3 -3
-3 -3 -3 -3 -3 -3 -3 -3 -3 -3 -3 -3 -3 -3 -3 -3 -3 -3 -3 -3 -3 -3 -3 -3 -3 -4 -4 -4 -4 -4 -4 -4 -4 -4 -4 -4 -5 -5 -5 -5 -5 -5 -5 -5 -5 -6 -6 -6 -6 -6 -6 -5 -5 -5 -5 -6 -6 -6 -6 -5 -5 -5 -4 -4 -4 -4 -4 -4 -4 -4 -4 -4 -4 -4 -4 -4 -4 -4 -4 -4 -4 -3 -3 -3 -3 -3
-3 -3 -3 -3 -3 -3 -3 -3 -3 -3 -3 -3 -3 -3 -3 -3 -3 -3 -3 -3 -3 -4 -4 -4 -4 -4 -4 -4 -4 -4 -4 -4 -4 -4 -4 -4 -5 -5 -5 -5 -5 -5 -5 -5 -6 -6 -6 -6 -6 -6 -6 -6 -6 -6 -6 -6 -6 -6 -6 -6 -6 -5 -4 -4 -4 -4 -4 -4 -4 -4 -5 -5 -5 -5 -5 -4 -4 -4 -4 -4 -3 -3 -3 -3 -3 -3
-3 -3 -3 -3 -3 -3 -3 -3 -3 -3 -3 -3 -3 -3 -3 -3 -3 -3 -4 -4 -4 -4 -4 -4 -4 -4 -4 -4 -4 -4 -4 -4 -4 -4 -4 -4 -5 -5 -5 -5 -5 -5 -5 -5 -6 -6 -6 -6 -6 -6 -6 -6 -7 -7 -7 -7 -7 -7 -7 -7 -7 -6 -5 -5 -5 -5 -5 -5 -5 -5 -5 -5 -5 -5 -5 -4 -4 -4 -4 -4 -3 -3 -3 -3 -3 -3
-3 -3 -3 -3 -3 -3 -3 -3 -3 -4 -4 -4 -4 -4 -4 -4 -4 -4 -4 -4 -4 -4 -4 -4 -4 -4 -4 -4 -4 -4 -4 -4 -4 -4 -4 -4 -5 -5 -5 -5 -5 -5 -6 -6 -6 -6 -6 -6 -6 -6 -6 -6 -7 -7 -7 -7 -7 -7 -7 -7 -7 -7 -6 -5 -5 -5 -5 -5 -5 -5 -5 -5 -5 -5 -4 -4 -4 -4 -4 -4 -3 -3 -3 -3 -3 -3
-2 -3 -3 -3 -3 -3 -3 -3 -3 -3 -4 -4 -4 -4 -4 -4 -4 -4 -4 -4 -4 -4 -4 -4 -4 -4 -5 -4 -4 -4 -4 -4 -4 -4 -4 -4 -5 -5 -5 -5 -5 -6 -6 -6 -6 -6 -6 -6 -6 -6 -6 -6 -7 -7 -8 -8 -8 -8 -7 -7 -7 -7 -7 -6 -5 -5 -5 -5 -5 -5 -5 -5 -5 -5 -4 -4 -4 -4 -4 -4 -3 -3 -3 -3 -3 -3
-2 -3 -3 -3 -3 -3 -3 -3 -3 -4 -4 -4 -4 -4 -4 -4 -4 -4 -4 -4 -4 -4 -4 -5 -5 -5 -5 -5 -5 -4 -4 -4 -4 -4 -5 -5 -5 -5 -5 -5 -5 -6 -6 -6 -6 -6 -6 -6 -6 -6 -6 -7 -7 -8 -8 -8 -8 -8 -8 -7 -7 -7 -7 -6 -6 -5 -5 -4 -4 -5 -5 -5 -5 -5 -4 -4 -4 -4 -4 -4 -4 -3 -3 -3 -3 -3
-2 -2 -3 -3 -3 -3 -3 -3 -3 -4 -4 -4 -4 -4 -4 -4 -4 -4 -4 -4 -4 -5 -5 -5 -5 -5 -5 -5 -5 -5 -5 -5 -5 -5 -5 -5 -5 -5 -5 -6 -6 -6 -6 -6 -6 -6 -6 -6 -6 -6 -7 -7 -7 -7 -7 -8 -8 -8 -8 -8 -7 -7 -7 -6 -6 -5 -5 -5 -5 -5 -5 -5 -5 -5 -5 -4 -4 -4 -4 -4 -4 -4 -4 -3 -3 -3
-2 -2 -2 -2 -2 -3 -3 -3 -3 -3 -3 -4 -4 -4 -4 -4 -4 -4 -5 -5 -5 -5 -5 -5 -5 -5 -5 -5 -5 -5 -5 -5 -5 -5 -5 -5 -5 -5 -6 -6 -6 -6 -6 -6 -6 -6 -6 -6 -6 -7 -7 -7 -7 -7 -7 -7 -7 -7 -8 -8 -8 -8 -7 -7 -6 -5 -5 -5 -5 -5 -6 -6 -6 -5 -5 -5 -5 -4 -4 -4 -4 -4 -4 -4 -3 -3
-2 -2 -2 -2 -2 -2 -3 -3 -3 -3 -3 -3 -3 -3 -4 -4 -4 -4 -4 -5 -5 -5 -5 -5 -5 -5 -5 -5 -5 -5 -5 -5 -5 -5 -5 -5 -5 -6 -6 -6 -6 -6 -6 -6 -6 -6 -6 -7 -7 -7 -7 -7 -7 -7 -7 -7 -7 -7 -7 -8 -8 -8 -8 -7 -6 -6 -6 -6 -6 -6 -6 -6 -6 -6 -6 -6 -5 -4 -4 -3 -4 -4 -4 -4 -3 -3
-2 -2 -2 -2 -2 -2 -3 -3 -3 -3 -3 -3 -3 -3 -3 -4 -4 -4 -4 -4 -5 -5 -5 -5 -5 -5 -5 -5 -5 -5 -5 -5 -5 -6 -6 -6 -6 -6 -6 -6 -6 -6 -6 -7 -7 -7 -7 -7 -7 -7 -7 -7 -7 -7 -7 -7 -7 -7 -7 -8 -8 -8 -8 -7 -6 -6 -6 -6 -6 -6 -6 -6 -6 -6 -7 -6 -6 -5 -4 -4 -3 -3 -3 -4 -4 -3
-2 -2 -2 -2 -2 -2 -2 -2 -2 -3 -3 -3 -3 -3 -3 -3 -4 -4 -4 -4 -5 -5 -5 -5 -5 -5 -5 -5 -5 -5 -5 -5 -5 -5 -5 -6 -6 -6 -6 -6 -6 -6 -7 -7 -7 -7 -7 -7 -7 -7 -7 -7 -7 -7 -7 -7 -7 -7 -7 -8 -8 -8 -8 -7 -6 -6 -6 -6 -6 -6 -6 -6 -6 -7 -7 -7 -7 -6 -6 -5 -4 -3 -3 -4 -4 -4
-2 -2 -2 -2 -2 -2 -2 -2 -2 -2 -2 -2 -3 -3 -3 -3 -4 -4 -4 -4 -4 -5 -5 -5 -5 -5 -5 -5 -5 -5 -5 -5 -5 -5 -5 -5 -6 -6 -6 -6 -6 -7 -7 -7 -7 -7 -7 -7 -7 -7 -6 -6 -6 -6 -7 -7 -7 -7 -7 -8 -8 -8 -8 -7 -7 -6 -6 -6 -6 -6 -6 -6 -6 -7 -7 -7 -7 -7 -7 -6 -5 -4 -4 -4 -4 -4
Height
802 803 804 805 806 808 809 809 810 811 812 813 813 814 814 815 815 816 816 817 817 818 818 819 819 819 820 821 821 821 821 822 822 822 822 823 823 823 823 823 824 824 824 824 824 824 824 824 825 825 825 825 825 825 825 825 825 825 826 826 826 827 827 827 828 828 829 829 829 829 829 829 829 829 829 829 830 830 831 831 831 831 832 832 832 832
802 803 804 805 806 807 808 809 809 810 811 812 812 813 813 814 814 815 815 816 816 817 817 818 818 819 819 820 821 821 821 821 821 821 822 822 822 823 823 823 823 824 824 824 824 824 824 824 824 824 824 824 825 825 825 825 825 825 825 826 826 826 826 827 827 827 827 828 828 828 828 828 828 828 829 829 829 830 830 830 830 831 831 831 831 832
801 802 803 804 805 806 807 808 809 810 810 811 812 812 812 813 813 814 814 815 815 816 816 817 818 818 819 820 820 820 820 820 821 821 821 821 822 822 822 823 823 823 823 823 824 824 824 824 824 824 824 824 824 824 824 824 825 825 825 825 826 826 826 826 826 827 827 827 827 827 827 827 828 828 828 829 829 829 829 830 830 830 830 830 831 831
800 801 802 803 804 805 806 807 808 809 810 810 811 811 811 812 812 813 814 814 814 815 816 816 817 818 818 819 820 820 820 820 820 820 820 821 821 822 822 822 823 823 823 823 823 824 824 824 824 824 824 824 824 824 824 824 824 825 825 825 825 825 825 826 826 826 826 826 826 826 827 827 827 827 828 828 828 828 829 829 829 829 829 830 830 830
799 800 801 802 803 804 805 806 807 808 809 810 810 810 811 811 812 812 813 814 814 815 815 816 817 817 818 819 819 819 820 820 820 820 820 821 821 821 822 822 822 823 823 823 823 823 824 824 824 824 824 824 824 824 824 824 824 824 824 825 825 825 825 825 825 825 826 826 826 826 826 826 826 827 827 827 827 828 828 828 829 829 829 829 829 830
799 800 800 801 802 803 804 806 807 808 808 809 809 809 810 810 811 812 812 813 814 814 815 816 816 817 818 818 819 819 819 819 819 820 820 820 821 821 822 822 822 823 823 823 823 823 823 823 823 824 824 824 824 824 824 824 824 824 824 824 824 824 825 825 825 825 825 825 825 825 825 826 826 826 826 826 826 827 827 827 828 828 828 829 829 829
799 799 800 801 802 802 804 805 806 807 808 808 809 809 809 810 811 811 812 812 813 814 815 815 816 817 817 818 818 818 818 819 819 819 820 820 821 821 822 822 822 822 822 823 823 823 823 823 823 823 823 823 824 824 824 824 824 824 824 824 824 824 824 824 824 824 824 824 824 825 825 825 825 825 825 825 826 826 826 826 827 827 828 828 828 829
797 799 800 800 801 802 803 804 805 806 806 807 807 808 809 809 810 811 811 812 813 814 815 815 816 816 817 817 817 818 818 818 819 819 819 820 820 821 821 821 822 822 822 822 822 822 822 823 823 823 823 823 823 823 823 823 823 823 823 823 824 824 824 824 824 824 824 824 824 824 824 824 824 824 824 825 825 825 825 825 826 826 827 827 827 828
796 798 799 800 801 802 803 804 804 805 806 806 807 807 808 809 809 810 811 812 813 814 814 815 815 816 816 816 817 817 818 818 819 819 819 819 820 820 820 821 821 821 821 822 822 822 822 822 822 822 823 823 823 823 823 823 823 823 823 823 823 823 823 823 823 823 823 823 823 823 824 824 824 824 824 824 824 824 824 825 825 825 826 826 826 827
795 796 798 799 800 801 802 802 803 804 805 805 806 807 807 808 809 809 810 811 812 813 814 814 815 815 815 816 816 817 817 818 818 818 819 819 819 820 820 820 821 821 821 821 821 821 822 822 822 822 822 822 822 822 822 822 822 822 822 823 823 823 823 823 823 823 823 823 823 823 823 823 823 823 824 824 824 824 824 824 824 824 825 825 825 826
795 796 797 798 799 799 800 801 802 803 804 805 806 806 807 808 808 809 809 810 811 812 813 814 814 814 815 815 816 816 817 817 817 818 818 819 819 819 819 820 820 820 820 820 821 821 821 821 821 821 821 821 821 821 821 821 822 822 822 822 822 822 822 822 822 822 822 822 822 822 822 823 823 823 823 823 823 824 824 824 824 824 824 824 824 825
794 795 796 797 798 799 799 800 801 802 803 804 805 806 807 807 807 808 809 809 810 811 812 813 813 814 814 815 815 816 816 816 817 817 818 818 818 819 819 819 819 819 820 820 820 820 820 820 821 821 821 821 821 821 821 821 821 821 821 821 821 821 822 822 822 822 822 822 822 822 822 822 822 822 823 823 823 823 823 823 823 823 824 824 824 824
793 794 795 796 797 798 799 799 800 802 802 803 804 804 805 806 806 807 808 809 809 810 811 812 812 813 814 814 815 815 815 816 816 817 817 817 818 818 818 818 819 819 819 819 819 819 819 820 820 820 820 820 820 820 820 820 820 820 820 820 821 821 821 821 821 821 821 821 821 821 821 822 822 822 822 822 823 823 823 823 823 823 823 823 823 824
793 794 795 796 796 797 797 798 799 800 801 802 802 803 803 804 805 806 807 808 809 810 810 811 812 812 813 814 814 814 815 815 815 816 816 817 817 817 817 818 818 818 818 818 818 819 819 819 819 819 819 819 819 819 819 819 819 819 820 820 820 820 820 820 821 821 821 821 821 821 821 821 821 821 822 822 822 822 822 823 823 823 823 823 823 823
792 794 794 795 795 796 796 797 797 798 799 800 801 802 803 804 804 806 806 807 808 809 810 811 811 812 813 813 813 814 814 814 815 815 815 816 816 816 817 817 817 817 817 817 817 818 818 818 818 818 818 818 818 818 818 819 819 819 819 819 819 820 820 820 820 820 820 820 820 820 820 821 821 821 821 821 822 822 822 822 822 822 822 822 822 822
791 792 793 793 794 794 795 796 797 797 798 799 800 801 802 803 804 805 806 806 807 809 809 810 811 812 812 812 813 813 813 814 814 814 815 815 815 815 816 816 816 816 816 816 817 817 817 817 817 817 817 817 817 817 818 818 818 818 819 819 819 819 819 819 819 819 819 820 820 820 820 820 820 820 821 821 821 821 821 821 821 821 821 822 822 822
790 791 791 792 793 794 794 795 796 797 798 799 799 800 801 802 803 804 805 806 807 808 809 809 810 811 811 811 812 812 812 813 813 814 814 814 814 814 815 815 815 815 815 815 815 816 816 816 816 816 816 816 816 817 817 817 818 818 818 819 819 819 819 819 819 819 819 819 819 819 819 819 820 820 820 820 820 820 821 821 821 821 821 821 821 821
789 790 790 791 792 793 793 794 795 796 797 798 799 800 801 802 803 803 804 805 806 807 808 808 809 809 810 810 810 811 811 812 812 813 813 814 814 814 814 814 814 814 814 814 814 814 815 815 815 815 815 815 816 816 816 817 817 817 818 818 818 818 818 818 819 819 819 819 819 819 819 819 819 819 819 820 820 820 820 820 820 820 820 820 821 821
788 789 789 790 791 792 793 793 794 795 796 797 798 799 800 801 802 803 804 804 805 806 807 807 808 809 809 809 809 810 810 811 811 812 812 813 813 813 813 813 813 813 813 814 814 814 814 814 814 814 815 815 815 815 816 816 817 817 817 818 818 818 818 818 818 818 818 818 819 819 819 819 819 819 819 819 819 820 820 820 820 820 820 820 820 820
788 788 789 789 790 791 792 793 793 794 795 796 797 798 799 800 801 802 803 804 804 805 806 807 807 808 808 809 809 809 810 810 811 811 811 812 812 812 812 812 812 812 812 813 813 813 813 813 814 814 814 814 815 815 815 816 816 816 817 817 817 817 817 818 818 818 818 818 818 818 818 818 819 819 819 819 819 819 819 819 820 820 820 820 820 820
787 788 788 789 790 791 791 792 793 794 795 796 797 798 799 799 800 801 802 803 804 804 805 806 807 807 808 808 808 809 809 809 810 810 810 811 811 811 811 811 811 811 812 812 812 812 813 813 813 813 814 814 814 814 815 815 815 816 816 816 817 817 817 817 817 817 817 817 818 818 818 818 818 818 818 818 819 819 819 819 819 819 819 819 819 819
787 788 788 789 790 790 791 792 793 794 795 796 797 797 798 799 799 800 801 802 803 804 804 805 806 807 807 807 808 808 808 809 809 809 810 810 810 809 810 810 810 810 811 811 811 812 812 812 813 813 813 814 814 814 814 814 815 815 816 816 816 816 816 817 817 817 817 817 817 817 817 817 818 818 818 818 818 818 818 818 818 818 818 819 819 819
787 788 788 789 790 791 791 792 793 794 795 796 796 797 798 798 799 799 800 801 802 803 804 805 805 806 806 807 807 807 808 808 808 809 809 809 809 809 809 809 809 810 810 811 811 811 812 812 812 812 813 813 813 814 814 814 814 814 815 815 816 816 816 816 816 817 817 817 817 817 817 817 817 817 817 817 817 817 817 817 818 818 818 818 818 818
787 787 788 789 790 790 791 792 793 794 794 795 796 797 798 799 799 800 800 801 802 803 804 804 805 805 806 806 806 807 807 807 807 808 808 808 808 809 809 809 809 810 810 810 811 811 811 811 812 812 812 812 813 813 813 813 814 814 815 815 815 815 816 816 816 816 816 816 816 816 817 817 817 817 817 817 817 817 817 817 817 817 817 817 817 817
787 787 788 789 789 790 791 792 792 793 794 795 796 797 798 798 799 799 800 801 802 802 803 804 804 804 805 805 806 806 806 806 806 807 807 808 808 808 808 809 809 809 810 810 810 810 811 811 811 811 811 812 812 812 813 813 813 814 814 814 815 815 815 815 815 816 816 816 816 816 816 816 816 816 816 816 816 816 816 816 816 816 816 816 816 817
787 787 788 789 789 790 791 791 792 793 794 795 795 796 797 798 798 799 799 800 801 801 802 803 804 804 804 805 805 805 805 805 806 806 806 807 807 808 808 808 808 809 809 809 810 810 810 810 810 810 811 811 811 812 812 813 813 814 814 814 814 814 814 814 815 815 815 815 815 815 815 816 815 815 816 816 816 816 816 816 816 816 816 816 816 816
787 787 788 789 789 790 790 791 792 793 794 795 795 796 797 797 798 798 799 799 800 801 801 802 803 803 804 804 804 804 804 805 805 805 806 806 807 807 807 807 808 808 808 809 809 809 809 809 809 810 810 810 810 811 811 812 812 813 813 813 813 813 814 814 814 814 814 814 814 815 815 815 815 815 815 815 815 815 815 815 815 815 815 815 815 815
787 787 788 788 789 789 790 791 792 793 794 794 795 796 796 797 797 798 798 799 799 800 801 801 802 802 803 803 804 804 804 804 804 805 805 806 806 806 806 807 807 807 808 808 808 808 809 809 809 809 809 809 810 810 810 810 811 811 812 812 812 813 813 813 813 813 813 814 814 814 814 814 814 814 814 814 814 814 814 814 814 814 814 814 814 814
786 787 787 788 789 789 790 791 792 793 794 794 795 796 796 797 797 797 798 798 799 799 800 800 801 802 802 803 803 803 804 804 804 804 805 805 805 806 806 806 806 807 807 807 808 808 808 808 808 808 809 809 809 809 810 810 810 810 811 811 812 812 812 812 812 812 812 812 813 813 813 813 813 813 813 813 814 814 814 814 814 814 814 813 813 813
786 787 787 788 789 789 790 791 792 793 794 794 795 795 796 796 797 797 797 798 798 799 799 800 800 801 801 802 802 803 803 803 803 804 804 804 805 805 805 806 806 806 807 807 807 807 807 807 807 808 808 808 809 809 809 810 810 810 810 811 811 811 812 811 811 811 811 811 811 811 812 812 812 812 812 812 812 812 813 813 813 813 813 812 812 812
787 787 788 788 789 789 790 791 792 792 793 794 794 794 795 796 796 797 797 797 798 798 799 799 800 800 801 801 802 802 802 802 802 803 803 804 804 805 805 805 806 806 806 807 807 807 807 807 807 807 808 808 808 809 809 809 809 810 810 810 810 811 811 811 810 810 810 810 810 810 810 810 811 811 811 811 811 811 811 812 812 812 812 811 811 811
787 787 788 788 789 789 790 791 791 792 793 793 794 794 795 795 796 796 797 797 798 798 798 799 799 800 800 801 801 801 801 802 802 802 803 804 804 804 804 805 805 806 806 806 807 807 807 807 807 807 808 808 808 809 809 809 809 809 810 810 810 810 810 810 810 809 809 809 809 809 809 809 809 809 809 810 810 810 810 810 811 811 811 810 810 810
787 788 788 789 789 789 790 791 791 792 792 793 793 794 794 795 795 796 796 797 797 798 798 799 799 799 800 800 800 801 801 802 802 802 803 803 804 804 804 804 805 805 805 806 806 806 807 807 807 807 807 808 808 808 808 809 809 809 809 809 809 809 809 809 809 809 809 808 808 808 808 808 808 808 809 809 809 809 809 809 810 810 810 810 810 810
787 787 788 789 789 789 790 791 791 792 792 793 793 794 794 794 795 795 796 796 797 797 798 798 799 799 799 800 800 800 801 801 801 802 802 803 803 803 804 804 804 805 805 805 806 806 806 806 807 807 807 807 807 808 808 808 808 808 808 808 808 808 808 808 808 808 807 807 807 807 807 807 807 807 807 808 808 808 808 809 809 809 809 809 809 809
786 787 788 788 789 789 790 790 791 791 792 792 793 793 794 794 794 795 795 796 796 797 797 798 798 798 799 799 799 800 800 801 801 801 801 802 802 803 803 804 804 804 804 805 805 805 805 806 806 806 806 806 806 807 807 807 807 807 807 807 807 807 807 807 807 806 806 806 806 806 806 806 806 806 806 806 807 807 807 807 807 808 808 808 808 808
786 787 787 788 788 789 789 790 791 791 792 792 792 793 793 794 794 794 795 795 796 796 797 797 798 798 798 799 799 800 800 800 800 801 801 801 802 802 803 803 803 804 804 804 805 805 805 805 805 806 806 806 806 806 806 806 806 806 806 806 806 806 806 806 805 805 805 805 805 805 805 805 805 805 805 805 805 806 806 806 806 806 807 807 807 807
785 786 787 787 788 788 789 789 790 790 791 791 792 792 793 793 794 794 794 795 795 796 796 796 797 797 798 798 799 799 799 800 800 800 801 801 801 802 802 803 803 803 804 804 804 804 805 805 805 805 805 805 805 805 805 805 805 805 805 805 805 805 805 804 804 804 804 804 804 804 804 804 804 804 804 804 804 804 805 805 805 805 805 806 806 806
785 785 786 787 787 788 788 789 789 790 790 791 791 792 792 793 793 794 794 794 795 795 795 796 796 797 797 798 798 799 799 799 799 800 800 801 801 801 802 802 802 803 803 804 804 804 804 804 805 804 804 804 804 804 804 804 804 804 804 804 804 804 804 803 803 803 803 802 803 803 803 803 803 803 803 804 804 804 804 804 804 804 804 804 805 805
784 785 786 786 787 787 788 788 789 789 789 790 790 791 791 792 792 793 793 794 794 794 795 795 796 796 797 797 798 798 799 799 799 799 800 800 800 801 801 801 802 802 802 803 803 803 804 804 804 804 804 804 804 804 804 804 803 803 803 803 802 802 802 802 802 802 802 801 802 802 802 802 802 802 803 803 803 803 803 803 803 803 803 804 804 804
784 784 785 786 786 786 787 787 788 788 789 789 789 790 790 791 791 792 792 793 793 794 794 795 795 796 796 797 797 798 798 798 799 799 799 799 799 800 800 800 801 801 801 802 802 802 803 803 803 803 803 803 803 803 803 803 802 802 802 802 801 801 801 801 801 801 800 800 801 801 801 801 801 801 801 802 802 802 802 802 802 802 803 803 803 803
784 784 785 785 785 786 786 787 787 788 788 788 789 789 789 790 790 791 791 792 792 793 794 794 794 795 795 796 796 797 797 798 798 798 798 799 799 799 799 799 800 800 800 801 801 801 801 801 802 802 802 802 802 802 802 801 801 802 802 801 800 799 799 799 799 799 799 799 799 800 800 800 800 800 800 800 801 801 801 801 801 801 802 802 802 802
783 784 784 784 785 785 786 786 787 787 787 788 788 789 789 789 790 790 791 791 792 792 793 793 794 794 795 795 795 796 796 796 797 797 797 797 798 798 798 798 799 799 799 799 799 800 800 800 800 800 800 801 801 801 800 800 800 800 800 800 799 799 799 798 798 798 798 798 799 799 799 799 799 799 799 799 799 800 800 800 800 800 800 800 801 801
783 784 784 784 784 785 785 786 786 786 787 787 788 788 788 789 789 790 790 791 791 792 792 793 793 794 794 794 794 795 795 795 796 796 796 796 796 797 797 797 797 798 798 798 799 799 799 799 799 799 799 800 800 800 799 799 799 799 799 799 799 799 798 798 798 798 798 798 798 798 798 798 798 798 798 798 799 799 799 799 799 799 799 799 799 800
783 783 784 784 784 784 785 785 785 786 786 787 787 787 788 788 789 789 789 790 790 791 791 792 792 793 793 793 794 794 794 794 794 795 795 795 795 795 796 796 796 797 797 797 797 798 798 798 798 798 799 799 799 799 798 798 798 798 798 798 798 798 798 797 797 797 797 797 797 798 798 797 797 797 797 797 797 798 798 798 798 798 798 798 798 799
782 782 783 783 784 784 784 785 785 785 786 786 787 787 787 788 788 788 789 789 789 790 790 791 791 792 792 792 792 793 793 793 794 794 794 794 794 795 795 795 795 796 796 796 796 797 797 797 797 797 797 798 798 797 797 797 796 796 796 796 796 796 796 796 796 796 796 796 796 796 796 796 796 795 795 796 796 796 796 797 797 797 797 797 797 797
781 781 782 783 783 783 784 784 784 785 785 786 786 786 787 787 787 788 788 788 789 789 789 790 790 790 791 791 791 792 792 792 793 793 793 793 794 794 794 794 795 795 795 795 795 795 796 796 796 796 796 796 796 796 795 795 795 795 795 795 795 795 794 794 794 795 795 795 795 795 795 795 794 794 794 794 794 795 795 795 795 796 796 796 796 796
780 780 781 782 782 783 783 784 784 784 784 785 785 786 786 786 786 787 787 787 788 788 789 789 789 789 790 790 791 791 791 792 792 792 793 793 793 793 794 794 794 794 794 794 794 794 794 794 795 795 795 795 795 794 794 794 794 794 794 794 794 794 794 793 793 794 794 794 794 794 794 794 793 793 793 793 793 793 794 794 794 794 795 795 795 795
779 779 780 780 781 781 782 782 783 783 784 784 784 785 785 785 786 786 786 786 787 787 787 788 788 788 789 789 790 790 790 791 791 791 792 792 792 793 793 793 793 794 794 794 794 794 793 793 794 794 794 794 794 793 793 793 793 793 793 793 793 793 792 792 792 792 793 793 793 793 793 793 792 792 792 791 791 791 792 793 793 794 794 794 794 794
777 778 779 779 780 780 781 781 782 782 783 783 784 784 784 784 785 785 785 785 786 786 786 787 787 787 788 788 789 789 789 790 790 790 791 791 792 792 792 792 792 793 793 793 792 792 792 792 792 792 792 792 792 791 791 791 791 792 792 792 792 792 791 790 791 791 792 792 792 792 792 792 791 791 791 790 790 789 790 791 791 792 793 793 793 793
776 777 777 778 779 779 779 780 780 781 781 782 782 783 783 783 784 784 784 784 785 785 785 786 786 786 787 787 788 788 789 789 789 789 790 790 791 791 791 791 792 792 792 792 792 791 791 791 790 790 790 790 790 790 790 789 790 790 791 791 791 790 790 790 789 790 790 790 791 791 791 791 790 790 790 790 789 788 788 789 789 790 791 791 791 792
774 775 776 776 777 778 778 779 779 779 780 781 781 781 782 782 782 783 783 783 784 784 784 784 785 785 785 786 786 787 787 788 788 789 789 789 789 790 790 790 791 791 791 791 791 791 790 790 789 788 788 788 788 788 788 788 789 789 789 789 789 789 789 789 789 789 789 789 789 790 790 789 789 789 789 789 788 788 787 787 788 789 789 790 790 790
Wind_Speed
18 20 20 22 23 23 22 20 19 18 17 16 16 15 14 13 13 12 12 12 12 12 12 13 12 11 11 11 9 8 8 8 7 7 7 7 6 6 5 5 5 4 3 3 3 2 2 2 1 1 1 2 2 3 3 3 3 3 4 4 4 4 4 4 3 3 3 2 2 2 2 2 3 3 2 2 2 2 2 2 2 2 2 3 3 3
17 19 20 21 23 23 22 20 19 18 17 16 16 15 14 13 13 13 13 12 12 12 12 13 13 12 12 11 8 6 6 5 5 5 5 5 5 5 5 4 4 3 2 1 1 1 0 0 1 1 1 2 2 2 2 2 3 3 3 3 4 4 4 3 3 3 3 2 2 2 3 3 4 4 3 3 2 2 2 2 2 3 3 3 3 3
17 18 20 21 23 23 22 20 19 17 16 15 15 14 14 13 13 12 12 12 11 11 11 12 13 12 11 11 8 5 4 4 4 4 4 4 4 4 4 3 2 1 1 1 1 1 1 1 2 2 2 2 2 2 2 2 2 3 3 3 4 3 3 3 3 3 3 3 3 3 4 4 4 4 4 4 4 3 3 3 3 3 3 3 3 3
18 20 21 22 22 22 22 20 18 17 15 14 13 13 13 12 12 11 11 11 10 9 9 10 11 11 11 10 8 6 3 4 4 3 3 3 3 3 2 1 1 2 2 2 2 2 2 2 3 3 3 2 2 1 1 1 2 2 2 3 3 3 3 3 4 4 4 4 5 5 5 5 5 5 5 5 5 5 4 4 4 4 4 4 3 3
18 20 22 22 22 21 20 19 18 16 15 13 13 12 12 11 11 11 11 10 9 9 8 9 9 10 9 9 9 7 4 3 3 3 3 3 3 3 3 3 3 3 3 3 2 2 2 2 3 3 3 2 2 1 1 1 1 1 2 2 3 3 3 4 4 4 5 5 6 6 6 6 6 6 7 7 7 6 6 5 5 5 4 4 4 4
17 19 22 22 22 21 20 18 17 15 14 13 12 11 11 11 10 10 10 10 9 9 9 8 8 9 9 9 9 9 7 6 5 5 5 5 5 4 4 4 4 4 4 3 3 2 2 2 2 2 2 2 2 1 1 1 1 1 2 2 3 3 3 4 4 5 5 6 6 6 7 7 7 7 8 8 8 7 7 6 6 5 5 5 4 4
18 20 22 23 22 21 20 18 16 15 14 13 12 11 11 10 10 10 10 10 10 10 9 9 9 9 9 9 10 10 9 8 7 7 7 7 6 6 5 5 5 4 4 3 3 2 2 2 2 2 2 2 2 1 1 1 1 1 2 3 3 4 4 4 5 5 6 6 7 7 7 8 8 8 8 8 8 7 7 7 6 5 5 5 5 5
18 20 22 21 20 19 20 18 16 15 14 13 12 11 11 11 11 11 11 11 10 11 10 10 10 10 10 10 10 9 9 8 7 7 7 7 7 6 5 5 5 4 4 3 2 2 2 2 2 2 2 2 2 2 2 2 2 3 3 4 4 5 5 6 6 7 7 8 8 8 8 7 7 6 6 6 6 6 6 6 6 5 5 5 5 5
19 20 21 20 17 17 18 18 17 15 14 13 12 12 12 12 12 12 11 11 11 12 11 11 11 11 11 11 10 10 9 8 7 6 6 6 6 5 5 4 4 4 3 3 2 2 1 2 2 2 2 2 2 2 3 4 4 4 5 5 6 6 7 7 8 8 8 8 8 8 7 6 5 4 4 4 5 5 5 5 5 5 5 5 5 5
20 21 22 20 19 18 18 19 18 16 14 12 12 12 12 13 13 13 12 12 13 13 13 12 11 11 11 11 10 10 9 8 7 7 6 5 5 4 4 4 4 5 5 4 4 3 2 2 2 1 2 3 3 4 5 5 6 6 6 6 7 7 8 8 8 8 8 8 7 6 5 4 3 3 3 3 4 4 4 4 4 4 4 4 4 5
19 20 20 20 20 20 19 20 20 18 15 13 12 12 12 13 13 14 14 14 14 14 13 13 12 11 11 11 11 10 9 8 8 7 6 6 5 4 4 5 5 5 6 6 5 5 5 4 3 3 3 4 5 6 6 7 7 7 8 8 8 8 8 7 7 7 7 6 6 5 4 3 3 3 3 3 3 3 3 3 3 3 3 3 3 4
18 19 19 19 19 19 19 20 20 19 17 15 13 12 13 14 14 14 14 15 15 15 14 14 13 12 12 11 11 10 9 9 8 7 7 6 6 6 6 6 6 6 7 7 7 7 7 6 6 5 6 7 7 8 8 9 9 9 9 9 9 8 7 6 6 6 5 5 5 4 4 3 3 3 2 2 2 2 2 2 2 2 2 2 2 2
19 20 19 19 19 19 19 18 18 18 18 17 15 14 15 15 15 14 13 14 15 15 15 14 13 13 12 12 11 11 10 10 9 8 8 7 7 7 7 8 8 8 8 8 8 8 8 8 8 8 9 9 10 10 11 11 11 11 11 10 9 7 6 5 5 5 4 4 4 4 3 3 3 3 2 2 2 2 2 2 2 2 2 2 2 2
17 18 17 16 16 17 19 19 18 18 18 18 17 17 17 17 16 15 13 13 14 14 13 13 13 13 12 12 12 11 11 11 10 10 9 9 9 9 9 9 9 9 9 9 9 9 9 9 9 10 10 11 11 12 12 12 12 11 10 9 7 5 4 4 4 4 4 4 4 4 3 3 3 2 2 2 2 2 2 2 2 2 2 2 2 2
16 16 14 13 14 16 18 19 20 20 20 19 19 18 17 17 17 15 14 14 14 14 13 13 13 12 12 12 12 12 11 11 11 11 10 10 10 10 10 10 10 10 10 10 10 10 10 10 10 11 11 12 12 12 12 12 11 10 8 6 4 3 3 4 4 4 4 4 4 3 3 3 3 2 2 2 2 2 2 2 2 2 2 2 2 2
17 16 14 14 15 16 18 19 19 19 20 20 19 18 16 16 16 16 15 14 14 14 13 12 10 10 10 11 12 12 12 12 12 11 11 11 11 11 11 11 11 11 10 10 10 10 11 11 11 11 11 11 11 11 11 10 9 7 5 4 3 3 4 4 4 4 4 3 3 3 3 3 2 2 2 2 2 2 2 2 2 2 2 2 2 3
18 17 16 15 15 17 18 20 20 19 20 19 19 18 17 16 17 16 15 15 15 14 13 11 8 5 5 7 10 13 13 13 12 12 12 11 11 12 12 11 11 10 10 10 10 11 11 11 10 10 10 10 9 9 9 8 6 5 3 3 3 3 4 4 4 3 3 3 3 3 3 2 2 2 2 2 2 2 2 2 2 2 2 2 3 3
18 18 17 16 16 18 19 20 20 19 20 19 19 18 17 16 16 16 16 16 15 14 13 12 9 5 4 3 6 10 12 12 12 12 11 11 11 11 11 11 11 10 10 10 10 10 10 9 9 8 8 8 8 7 7 6 5 4 3 3 3 4 4 4 3 3 3 3 3 3 2 2 2 2 2 2 1 2 2 2 2 2 2 2 2 3
18 19 19 17 18 19 20 21 21 20 20 20 19 18 17 16 16 16 16 16 15 14 13 12 10 7 4 3 5 7 9 8 9 9 9 10 10 10 11 10 10 10 9 9 8 8 8 7 7 7 7 7 7 6 6 5 5 4 3 3 3 3 3 3 3 3 4 4 3 2 2 2 2 2 2 2 1 1 1 2 2 2 2 2 2 3
17 19 18 18 18 19 20 21 21 21 20 20 19 18 17 16 16 16 16 16 15 14 13 13 11 9 7 6 6 7 7 6 6 7 8 8 9 10 10 10 9 8 7 7 7 6 6 6 6 6 6 6 6 6 6 6 5 4 4 3 3 3 3 3 3 4 4 4 2 2 2 2 2 2 2 2 2 2 2 2 2 2 2 3 2 2
14 16 16 15 16 17 18 19 19 18 18 17 17 17 16 16 16 17 16 16 16 15 13 12 11 9 8 8 7 7 7 6 5 6 6 7 8 9 9 8 7 6 5 5 5 5 5 5 5 5 5 6 6 6 6 6 6 5 4 3 3 3 3 3 3 3 3 2 2 2 2 2 2 3 3 3 3 3 3 3 3 3 4 4 4 4
9 11 11 12 13 14 13 14 14 15 15 16 16 16 16 16 17 17 16 16 15 15 13 11 9 8 8 8 8 7 7 6 6 5 5 5 6 7 6 5 4 4 4 4 4 4 4 4 4 5 5 6 6 6 7 7 6 5 4 3 4 4 4 3 3 2 2 2 2 2 3 3 3 3 3 3 3 4 4 4 4 4 4 4 4 4
5 6 8 10 10 10 9 10 11 13 14 14 14 13 13 14 14 15 15 14 13 13 12 11 9 9 8 8 8 8 8 7 7 6 5 4 3 3 3 2 3 4 5 4 4 4 4 4 4 5 5 6 6 6 7 6 6 4 4 4 4 4 4 3 3 2 2 3 3 3 3 3 4 4 4 4 4 4 4 4 4 4 4 4 5 5
5 5 6 8 8 8 7 8 10 12 13 13 12 11 10 10 10 10 10 10 10 10 10 9 8 8 7 7 7 8 8 7 7 6 5 4 3 2 2 2 3 4 4 5 5 4 4 4 5 6 6 6 6 6 6 5 4 4 4 4 4 4 3 3 2 2 3 3 3 4 4 4 4 4 4 4 4 4 4 4 4 4 4 5 5 5
6 6 7 8 8 8 8 8 9 11 12 13 12 11 10 10 9 9 9 9 9 9 9 8 7 7 7 7 7 7 7 7 6 6 5 4 3 3 3 3 3 4 4 5 5 5 5 6 6 7 7 7 6 4 3 3 3 4 4 4 4 4 4 3 3 3 3 4 4 4 4 5 5 5 5 4 4 4 4 4 4 4 5 5 5 5
6 6 7 8 8 8 8 8 9 10 12 12 12 12 12 11 11 10 10 10 10 9 9 7 7 7 7 6 6 6 6 6 6 5 5 5 3 3 4 4 4 4 5 5 6 6 6 7 7 7 7 6 5 4 5 4 4 4 5 5 6 6 5 5 5 5 5 5 5 4 5 5 5 5 5 5 4 4 4 4 4 5 5 5 5 5
6 7 7 8 8 8 8 8 9 11 12 12 12 12 12 11 11 11 10 10 10 9 8 6 5 5 6 5 5 5 5 5 5 5 5 5 4 3 4 4 4 4 5 5 6 6 7 7 7 7 6 5 6 7 8 8 7 6 6 7 7 7 6 6 6 6 7 6 5 4 4 4 5 5 5 5 5 5 5 5 5 5 5 5 5 6
8 8 8 8 7 8 9 9 10 11 12 13 12 12 11 11 10 10 11 10 9 9 9 7 5 4 5 4 4 4 5 5 6 6 6 5 4 4 4 4 4 4 4 5 6 6 7 7 7 6 5 6 7 9 10 11 10 9 8 8 8 7 6 6 7 8 7 6 4 4 4 4 4 4 5 5 5 5 5 5 5 5 5 6 7 7
10 11 11 10 9 9 10 10 11 11 12 11 11 11 10 9 9 9 9 9 8 8 8 8 6 5 4 4 4 4 5 6 7 7 7 6 5 4 5 4 4 4 4 4 5 5 5 6 5 5 5 7 9 10 11 11 11 11 10 9 8 7 7 8 9 9 8 7 5 5 5 4 4 5 5 5 5 5 5 5 5 5 6 7 7 8
10 11 11 11 11 11 11 11 11 10 10 9 9 9 9 8 7 7 7 7 7 8 8 7 7 6 4 3 3 3 4 6 7 8 7 6 5 4 4 4 4 4 3 3 3 3 3 3 3 4 5 7 9 11 11 12 11 11 10 9 8 8 8 10 11 11 10 8 7 7 7 6 6 6 6 6 6 6 6 5 5 6 7 7 7 7
10 10 11 11 10 10 10 10 11 10 9 9 8 8 7 7 6 6 6 6 6 6 6 6 6 5 4 4 2 1 2 3 5 6 6 6 5 4 3 3 3 3 3 2 1 1 1 1 2 3 5 6 8 10 11 11 11 11 11 10 10 10 11 12 12 12 10 9 9 8 8 9 9 8 8 8 8 8 7 6 6 6 7 7 7 7
9 9 10 10 10 10 9 10 10 10 10 9 9 8 7 6 6 6 6 5 5 5 5 5 5 4 4 4 3 2 1 2 3 3 4 5 5 4 4 3 3 3 3 2 2 1 1 1 1 3 4 5 7 8 9 10 11 11 11 11 12 12 12 12 11 11 10 10 9 9 10 10 10 11 10 10 10 9 9 8 7 6 7 7 7 8
8 9 10 10 11 11 10 10 10 11 11 10 9 8 7 7 6 5 5 5 4 4 4 4 4 4 4 4 4 4 2 2 2 3 3 4 4 4 4 4 4 3 4 4 4 4 3 2 1 3 4 6 7 8 8 9 10 11 12 12 13 13 12 11 10 10 10 10 10 10 11 11 11 11 11 11 10 10 9 8 7 6 6 7 7 7
8 9 10 10 11 12 12 12 12 12 12 11 10 9 8 7 7 6 5 5 5 5 4 4 4 4 4 4 4 4 3 3 4 4 4 4 5 5 5 5 5 5 5 5 5 5 4 4 4 4 4 6 8 9 9 10 11 12 12 13 12 12 11 10 10 10 11 11 11 11 11 11 11 11 10 10 10 9 9 8 7 6 6 6 7 8
9 9 10 10 11 12 12 13 13 13 13 12 11 10 9 8 7 7 6 6 5 5 5 5 5 4 4 4 4 4 3 4 4 5 5 5 5 6 6 6 6 6 6 5 4 4 4 5 5 4 4 5 7 9 10 11 11 11 11 11 11 10 10 11 11 12 12 12 11 11 10 10 10 10 10 9 9 9 9 8 8 8 7 7 7 8
9 9 10 10 11 11 12 12 13 13 13 13 12 11 11 10 9 8 8 7 7 7 6 6 6 6 5 5 4 3 2 3 4 5 5 5 6 6 5 6 6 6 6 6 5 4 4 4 5 5 6 5 5 6 8 8 9 9 9 9 10 10 11 12 13 13 12 11 10 10 9 9 9 9 9 9 10 10 10 10 10 10 9 9 9 8
9 9 9 10 10 11 11 12 12 12 13 13 13 13 12 12 11 10 10 9 9 8 7 7 7 6 6 6 5 4 3 4 4 5 5 5 6 6 5 5 6 6 6 7 7 6 5 5 5 6 7 7 5 4 5 7 8 9 9 11 12 13 13 13 13 12 11 10 9 9 9 9 9 9 9 10 10 10 11 11 11 11 11 11 10 10
8 9 9 9 10 10 10 11 11 12 12 13 13 13 13 12 12 12 11 10 10 9 8 8 7 7 7 6 6 5 5 5 6 6 6 6 6 6 6 6 7 7 7 7 8 8 7 6 5 5 5 7 8 8 8 9 10 12 13 14 14 14 14 12 11 10 9 8 8 8 9 9 9 9 10 10 11 11 11 12 12 12 12 11 11 11
8 8 8 9 9 9 10 10 10 11 11 12 12 12 11 11 11 11 10 10 9 9 8 8 8 8 7 7 7 6 6 6 7 7 7 7 7 8 8 8 8 8 8 8 8 9 9 8 7 6 5 6 7 8 10 11 11 13 15 16 16 15 12 10 9 8 8 8 9 9 9 9 10 10 11 11 12 12 12 12 12 12 12 12 12 12
8 8 8 8 8 9 9 9 9 9 9 9 9 10 10 9 9 9 9 8 8 8 8 8 8 8 8 7 7 7 7 8 8 8 9 9 9 10 10 10 10 10 10 10 10 10 10 11 11 11 10 8 8 9 10 11 13 15 16 16 15 13 12 11 10 9 9 9 9 9 10 10 11 11 11 12 12 12 13 13 13 13 13 13 13 12
8 8 8 8 8 8 8 8 7 7 7 7 7 7 7 7 7 7 8 8 8 8 8 8 8 8 8 8 8 9 9 9 9 10 10 10 11 11 11 12 11 11 11 11 11 12 12 12 13 14 14 14 14 14 15 15 16 16 15 14 15 15 15 13 10 8 8 9 10 10 10 11 11 11 12 12 13 13 13 13 13 13 13 13 13 13
8 8 8 8 7 7 6 6 5 5 5 6 6 6 7 7 7 7 7 8 8 8 8 8 8 8 9 9 9 10 10 10 11 11 11 12 12 12 12 12 12 12 12 12 13 13 13 13 14 14 15 15 14 14 15 16 16 15 14 14 15 15 14 10 6 4 6 8 9 10 11 11 11 12 12 13 13 13 14 14 14 14 14 13 13 13
8 7 7 6 6 5 4 4 4 4 5 5 6 6 6 7 7 7 7 8 8 8 8 8 8 8 9 9 10 11 11 11 12 12 12 12 11 11 12 12 12 12 12 13 13 14 14 14 14 15 15 14 14 14 14 14 14 14 14 14 13 12 8 5 4 3 4 6 8 9 10 10 11 12 13 14 14 14 14 14 14 14 14 14 14 13
6 6 6 6 5 4 4 4 4 4 4 5 5 6 6 6 7 7 8 8 8 8 8 8 8 9 9 10 11 11 11 11 11 11 10 10 10 10 10 11 11 12 12 13 13 13 14 14 15 15 14 14 14 14 14 14 14 14 14 13 13 12 10 9 9 8 7 7 8 9 9 10 12 13 14 14 14 14 14 15 15 15 15 14 14 14
6 6 6 6 6 5 5 5 5 4 4 4 5 5 5 6 6 7 7 8 8 8 8 8 8 8 8 9 9 9 9 9 9 8 8 8 8 9 9 9 10 11 12 12 13 13 13 14 14 14 13 13 13 13 14 13 13 13 13 14 13 14 15 15 13 11 10 9 9 9 9 10 11 12 13 13 13 13 13 14 14 14 15 15 15 14
8 7 7 7 6 6 6 6 6 6 6 5 5 5 6 6 6 6 7 7 8 8 8 8 8 8 7 7 7 7 7 7 6 6 7 7 7 8 8 8 9 10 10 11 12 13 13 14 13 12 12 12 13 14 14 14 14 14 14 14 14 15 15 16 14 13 11 10 9 8 8 9 10 11 11 11 12 12 13 13 13 13 13 14 15 15
10 9 9 8 8 7 7 7 7 7 7 7 7 7 6 6 7 7 7 8 8 8 8 8 9 9 9 8 7 7 6 6 6 6 6 6 7 7 7 8 8 9 9 10 11 12 13 13 13 12 12 12 13 13 14 14 14 14 14 15 15 15 16 17 16 14 12 10 9 8 7 7 8 9 9 10 11 12 12 12 12 12 12 13 13 14
12 11 10 10 9 9 9 8 8 8 8 8 8 8 8 8 8 8 8 8 8 8 9 9 9 9 9 9 8 8 7 7 7 6 6 6 7 7 8 8 8 9 9 10 11 11 12 13 13 13 14 14 14 14 14 14 14 14 14 14 14 15 17 18 16 14 12 10 8 7 6 6 7 9 10 11 12 12 12 11 11 11 11 11 12 13
13 13 12 11 11 10 10 9 9 9 9 9 9 9 9 9 10 10 10 9 9 9 10 10 10 10 9 9 9 8 8 8 8 7 7 7 7 8 8 9 9 9 9 10 11 11 12 13 14 14 15 16 16 16 15 15 14 13 13 13 13 15 16 17 16 14 12 10 7 6 5 6 7 8 10 12 14 14 13 12 11 10 9 10 10 11
15 14 14 13 13 12 11 10 10 9 9 9 9 10 10 10 11 11 10 10 10 10 10 10 10 10 10 10 9 9 8 8 8 8 8 8 8 8 9 9 9 9 9 9 10 10 10 11 13 15 16 17 17 17 17 16 15 14 13 13 13 14 15 16 15 13 11 8 7 6 6 6 6 7 9 11 13 15 15 15 13 11 9 8 9 9
17 16 16 15 14 13 12 12 11 10 10 9 9 10 10 10 11 11 11 11 11 11 11 11 11 11 11 11 10 9 9 9 9 9 8 8 8 8 9 9 9 9 9 8 7 6 6 6 8 10 13 15 15 15 16 16 15 13 13 13 13 13 14 15 14 12 9 8 7 6 6 7 7 7 9 10 12 14 15 15 14 13 10 9 9 9
Wind_Direction
207 208 207 206 200 196 198 204 207 209 213 216 218 220 223 226 230 233 236 240 241 237 228 227 227 221 212 211 217 228 232 236 241 246 250 255 261 267 273 280 287 294 296 295 293 292 290 291 286 240 188 178 173 170 164 155 150 148 147 137 136 141 143 142 144 145 137 146 164 183 201 220 231 239 249 254 254 254 257 265 269 274 284 283 282 283
202 201 199 198 197 196 198 203 207 209 213 216 218 220 222 225 229 235 239 243 243 237 227 222 221 219 213 210 213 222 230 234 238 242 245 247 249 252 259 269 277 282 280 278 284 299 316 59 118 138 160 176 186 189 191 190 188 186 184 182 179 175 174 172 172 171 169 176 190 206 218 229 231 232 237 246 253 260 266 271 270 267 268 274 282 292
189 189 189 192 194 195 197 200 203 207 212 215 218 220 222 224 227 232 239 241 240 234 226 220 218 217 214 209 208 214 227 231 232 234 234 234 236 240 246 254 259 247 200 168 146 118 105 114 124 134 144 157 173 183 189 196 199 201 204 205 204 203 204 207 210 212 213 219 227 234 237 241 242 241 243 248 254 258 262 269 268 264 262 268 277 289
182 181 183 186 190 195 197 198 199 202 207 211 215 218 221 221 221 225 233 234 228 220 218 216 216 215 212 206 201 201 213 223 224 221 217 213 213 213 211 197 162 135 130 129 126 119 116 125 135 141 148 152 159 171 188 199 211 220 226 226 226 228 232 234 237 240 240 242 246 249 250 251 253 254 254 255 256 257 260 268 270 267 266 269 276 287
180 180 182 183 186 191 196 198 198 200 203 206 210 214 217 216 215 218 225 224 214 202 199 205 208 208 204 196 189 185 180 184 187 180 167 156 147 140 131 121 116 115 116 122 125 127 132 142 151 157 161 163 168 182 210 241 270 278 274 262 256 254 257 258 259 259 258 258 259 260 261 260 261 262 261 262 261 261 262 267 271 272 271 272 278 285
179 182 183 183 184 187 192 195 198 200 202 204 209 212 213 211 209 209 212 211 202 190 183 188 195 197 192 186 185 184 177 167 163 158 146 134 124 120 119 119 122 125 128 134 139 143 152 160 171 177 183 190 201 221 253 294 310 309 300 288 279 276 278 279 278 278 277 275 274 273 272 271 270 269 268 267 266 265 265 266 269 273 275 276 278 281
179 182 183 183 184 187 189 191 196 200 200 201 204 208 209 206 202 200 201 199 192 183 177 180 184 185 183 184 189 193 190 182 174 167 156 145 137 133 133 138 143 146 147 150 153 159 174 187 201 214 226 233 243 254 265 276 279 276 276 279 281 285 289 291 293 294 295 294 292 290 287 284 281 278 276 274 272 270 267 266 266 269 272 275 277 279
176 180 183 183 183 185 187 189 194 200 203 202 200 198 198 198 194 192 195 195 190 183 179 179 180 180 179 181 188 194 196 192 185 177 171 165 161 159 160 165 168 169 169 170 172 183 207 230 246 256 262 263 264 258 248 241 242 247 256 268 278 285 291 295 298 301 302 303 303 301 299 295 291 287 284 281 278 275 271 267 264 265 269 272 274 275
174 176 181 183 181 180 182 187 193 199 204 207 203 196 190 189 189 189 190 192 190 186 183 182 181 179 179 182 186 191 194 193 190 186 185 185 186 188 192 197 201 205 207 208 208 215 233 254 264 269 267 258 248 242 241 242 247 256 265 274 283 288 293 296 299 302 304 306 307 307 306 302 296 291 287 285 285 283 280 273 268 265 265 265 266 270
178 177 179 183 184 183 181 184 190 197 202 207 208 203 196 191 188 188 189 191 191 190 187 187 185 183 183 185 188 191 194 196 197 198 199 202 206 212 221 228 235 241 244 246 246 246 244 242 247 246 237 229 232 241 250 257 263 271 277 283 288 292 295 297 299 302 304 306 309 309 308 303 297 290 284 283 284 287 289 285 279 272 266 263 262 264
177 179 179 181 185 188 187 186 187 192 197 202 205 205 203 198 194 191 190 190 191 191 190 190 190 190 189 191 193 195 199 203 207 211 216 220 226 233 242 248 254 259 262 264 264 262 258 250 238 230 233 235 242 253 264 271 277 283 287 289 292 294 294 296 297 300 304 307 309 310 309 304 298 292 285 281 282 288 295 298 294 284 274 268 265 264
173 178 179 181 184 187 189 189 189 190 193 194 195 198 200 202 200 198 196 193 191 190 191 191 193 195 197 199 200 203 206 210 215 221 228 234 241 248 254 260 264 269 272 273 271 270 267 264 256 250 252 256 261 267 275 280 285 289 292 294 294 293 292 292 293 296 300 304 308 309 309 305 299 293 286 284 287 293 299 304 303 297 287 284 280 276
174 177 179 182 185 186 187 186 186 187 190 192 192 192 193 198 200 200 198 197 195 192 192 192 193 197 202 205 207 210 214 218 222 227 234 241 248 254 260 265 269 271 274 275 274 272 271 270 267 264 266 269 272 275 279 284 288 292 295 296 296 293 289 286 286 289 293 298 303 307 309 308 306 301 294 288 285 286 288 290 294 294 291 292 293 294
173 175 176 179 183 187 188 185 183 184 189 194 197 197 196 196 197 197 196 195 196 196 195 194 195 198 202 207 211 214 219 222 227 231 236 243 250 256 263 267 270 272 274 274 273 272 272 272 271 271 272 274 276 278 281 284 289 292 295 296 294 289 281 278 278 282 288 293 300 305 307 309 309 307 302 290 282 279 277 279 282 284 285 288 290 294
172 174 176 180 185 188 190 189 188 189 193 197 200 201 199 196 194 194 192 190 191 194 195 197 199 201 205 209 213 217 222 225 229 233 238 244 251 258 263 267 269 272 273 272 272 272 273 273 273 273 273 274 275 277 280 284 287 291 293 293 288 277 268 267 271 277 285 293 299 304 306 305 304 301 297 282 273 270 270 273 279 283 284 285 286 287
177 178 182 186 188 190 192 193 193 194 196 198 199 199 197 193 193 194 193 190 189 190 188 187 192 201 211 216 218 220 224 228 232 236 241 247 254 260 264 266 267 269 271 271 272 273 274 274 274 273 272 271 272 274 277 281 284 286 286 281 271 264 261 263 269 277 286 295 299 301 301 299 296 291 284 275 267 262 261 265 271 279 282 283 283 284
182 184 186 188 189 191 193 196 196 197 197 197 197 197 197 195 194 195 195 193 189 186 184 183 180 186 209 221 224 225 227 230 235 240 244 247 252 259 263 265 266 268 271 273 273 273 273 272 271 270 268 267 267 268 270 273 274 274 270 263 258 258 258 263 269 277 287 290 292 293 294 292 288 281 273 270 264 259 256 253 256 266 277 281 283 283
187 189 191 191 192 193 195 196 197 198 199 197 196 197 197 197 197 196 196 195 190 185 185 187 187 187 190 193 218 228 228 229 234 240 244 245 249 255 260 264 267 270 273 274 273 271 269 268 266 264 262 261 261 260 260 259 258 256 256 256 257 258 258 261 267 273 275 273 275 280 286 283 276 268 264 261 270 277 274 277 278 282 295 300 296 291
193 194 195 196 198 199 199 199 199 200 200 199 198 196 195 196 196 195 194 195 193 190 190 191 195 198 197 189 213 226 229 228 231 236 240 243 249 256 261 265 269 272 273 271 267 265 262 260 259 257 256 255 254 253 250 247 244 245 248 253 255 254 251 253 256 264 269 269 266 264 273 273 270 267 263 258 259 285 308 309 311 311 306 300 295 293
202 202 203 204 204 203 203 205 207 207 205 204 202 198 194 194 194 193 192 194 195 195 195 196 199 205 212 213 220 229 236 235 232 233 239 246 255 263 267 270 272 272 267 259 255 254 253 252 252 251 250 249 249 248 246 243 241 241 244 250 251 246 240 238 248 262 274 279 272 260 261 264 266 265 263 261 257 258 270 279 277 265 249 242 244 256
211 211 214 216 214 210 209 212 214 214 212 209 204 200 197 194 193 193 195 197 198 198 200 201 203 207 213 216 220 229 242 241 232 232 246 259 268 271 274 272 268 259 245 238 240 243 245 247 248 247 246 246 246 246 245 245 242 238 240 245 242 233 228 232 247 264 276 282 274 260 261 264 264 262 260 259 259 261 263 263 259 249 238 231 228 227
222 221 221 222 223 223 224 223 219 215 214 210 205 201 199 196 194 195 198 200 201 201 201 201 202 204 210 216 223 233 248 249 246 249 261 266 267 270 277 267 249 230 214 216 226 237 243 246 248 248 249 248 249 251 251 250 243 235 233 235 229 220 220 229 242 256 263 264 262 262 262 265 266 264 264 261 260 262 265 266 262 255 247 242 237 236
224 226 223 222 223 227 231 227 219 213 210 210 210 209 207 204 201 201 202 203 203 203 202 200 202 208 216 223 232 242 251 256 259 260 262 254 256 266 268 241 215 204 198 206 221 236 244 249 252 254 256 257 259 260 260 252 239 227 223 222 216 211 215 222 233 245 257 262 263 263 265 265 266 267 268 265 263 263 264 267 267 265 263 259 255 255
196 202 210 213 214 213 215 215 212 208 205 205 206 208 207 205 204 204 203 203 201 199 199 201 204 210 218 227 236 244 252 257 258 254 244 237 246 259 245 216 203 200 199 211 226 237 246 254 259 263 266 268 269 268 261 242 220 207 210 207 204 202 207 217 231 247 260 266 268 267 266 264 263 263 263 264 264 264 265 265 265 265 265 263 259 257
192 190 195 199 200 200 198 199 203 203 200 197 196 195 193 191 190 189 187 189 190 193 195 199 201 206 219 229 238 245 249 252 251 242 230 224 230 244 245 233 222 216 215 223 234 243 250 257 263 268 271 272 269 258 233 200 189 192 196 194 193 196 202 210 225 242 255 263 266 266 264 261 259 257 257 257 259 261 263 264 265 265 264 263 262 261
190 187 187 190 193 192 189 188 191 195 194 192 190 189 189 187 187 186 187 188 189 192 194 194 199 210 222 229 234 238 241 243 242 236 226 219 221 240 252 251 246 239 235 237 242 248 253 261 266 270 270 263 241 202 171 159 167 182 185 188 193 200 208 219 235 253 264 266 266 266 263 259 255 252 252 253 254 258 261 264 266 267 266 265 263 260
175 175 177 181 183 183 180 177 179 183 186 187 188 190 192 192 191 189 188 191 194 196 196 193 198 208 215 216 218 222 226 228 229 229 228 224 224 234 249 255 255 251 249 250 252 255 259 265 268 268 263 241 214 193 177 169 166 171 182 192 200 208 218 236 258 275 281 275 268 263 262 257 253 250 249 251 254 259 262 266 268 269 268 265 260 255
154 154 156 157 161 165 168 168 171 176 180 184 188 193 198 200 197 194 195 199 202 203 202 200 197 194 192 187 197 212 218 222 222 223 227 224 226 233 239 252 259 259 259 263 267 267 266 266 265 260 244 220 204 196 190 185 182 184 190 198 206 216 233 259 280 291 291 280 261 249 251 253 252 250 250 252 255 260 263 266 269 269 267 262 258 255
152 150 147 143 146 154 160 163 167 173 178 183 187 193 200 206 207 205 206 207 206 203 200 199 194 184 178 187 208 223 226 226 224 224 227 221 223 234 241 248 255 261 266 277 281 276 268 261 254 241 220 205 199 197 198 198 199 200 203 207 215 230 255 278 291 295 292 278 255 235 232 237 243 246 248 250 254 258 262 266 268 268 266 264 263 262
157 156 152 151 153 158 161 162 164 168 174 181 188 194 199 205 207 207 206 207 204 198 193 191 187 182 180 192 220 239 238 227 223 224 225 218 215 224 237 236 242 254 266 283 288 281 267 253 237 218 203 199 199 201 204 207 210 213 217 221 232 249 271 285 293 294 290 279 260 242 232 230 231 236 238 241 245 248 252 256 261 265 265 265 264 264
159 158 156 158 162 165 168 168 168 168 171 180 190 197 200 203 202 200 200 202 199 194 189 184 183 185 188 189 188 230 256 220 213 218 220 211 207 212 221 213 225 247 262 268 292 310 292 230 211 204 197 200 204 208 212 217 221 226 230 237 248 263 277 287 291 292 290 283 271 258 246 239 236 236 237 239 243 246 248 249 253 259 260 261 261 263
163 162 161 162 165 168 172 174 175 176 178 185 194 204 208 209 206 204 203 202 199 197 194 191 191 196 205 205 201 203 230 197 200 206 204 196 197 205 215 212 220 245 264 260 270 277 190 86 176 202 205 208 213 218 223 227 232 236 241 249 259 270 278 284 287 288 286 284 279 272 263 255 249 246 245 246 249 253 254 252 249 251 255 258 262 266
169 170 170 170 171 173 175 177 179 182 185 189 196 205 214 219 218 215 212 211 212 212 214 213 212 213 217 222 223 224 224 214 213 213 204 193 194 205 219 225 234 250 265 267 267 262 252 272 251 226 225 225 226 229 234 238 242 246 251 257 264 270 275 277 280 282 283 283 281 277 272 266 261 257 255 255 256 258 259 255 249 244 250 257 262 266
178 180 181 180 180 181 182 184 185 187 190 194 198 203 210 217 221 222 222 224 228 234 237 239 237 232 226 224 230 236 236 229 229 233 232 218 213 220 232 238 243 250 258 262 262 259 256 257 257 252 245 238 236 237 240 246 251 255 258 262 264 267 269 273 278 282 284 283 281 277 273 269 266 263 261 260 259 257 255 252 244 237 240 250 257 260
186 189 191 192 192 192 193 194 195 197 199 203 206 209 212 216 220 223 226 230 238 245 252 255 255 251 245 237 237 241 241 231 231 238 242 236 234 238 244 246 247 248 246 245 245 243 243 249 250 253 258 257 255 252 251 253 256 259 262 263 265 267 273 281 287 289 288 284 279 274 269 267 265 263 261 259 256 253 248 244 237 229 225 232 243 251
192 196 198 200 201 202 203 204 205 206 209 212 216 219 221 223 226 229 232 236 242 248 254 257 258 256 253 248 246 245 239 233 235 241 245 247 248 248 247 248 249 247 240 235 232 232 237 245 248 251 257 266 271 268 261 259 259 262 266 268 272 278 285 291 294 292 288 281 273 266 262 260 260 259 257 255 253 251 249 246 242 236 229 226 229 237
195 198 201 203 205 207 209 211 212 213 215 218 222 225 227 230 233 236 239 242 245 248 250 251 251 250 249 246 241 236 230 236 241 247 252 256 259 257 251 250 253 253 245 238 236 237 241 251 258 260 260 257 258 263 264 268 270 271 273 275 280 286 293 296 295 290 283 273 262 255 252 251 251 251 251 250 251 252 253 254 253 250 246 240 236 236
196 199 201 203 206 209 211 214 215 217 218 222 225 228 231 234 236 239 242 244 246 246 244 242 241 240 240 239 237 234 233 239 246 252 257 263 266 265 261 257 257 259 256 252 249 247 247 252 260 265 264 257 257 261 268 275 278 278 279 281 285 290 296 297 294 286 275 262 252 245 243 243 243 243 244 246 248 250 252 254 256 258 257 255 252 248
197 198 199 202 205 208 211 214 216 219 222 224 227 230 232 235 237 238 240 240 240 239 236 234 232 231 232 234 234 235 237 242 248 254 259 264 268 270 268 264 262 262 263 260 257 254 251 251 251 255 263 267 268 269 273 277 279 282 286 290 292 293 295 296 292 282 268 256 247 241 238 237 238 239 240 243 246 248 250 252 255 258 260 262 262 260
191 191 192 196 200 204 206 210 214 218 221 223 225 227 229 230 230 231 230 229 228 227 227 226 226 226 228 231 234 238 241 245 250 255 260 264 267 269 269 267 265 264 263 261 258 256 254 253 253 254 257 264 271 275 277 277 280 285 291 295 296 295 295 296 291 278 263 251 243 237 234 234 234 236 238 242 246 249 252 254 256 258 260 262 263 262
177 178 181 187 192 196 200 204 207 210 212 214 216 216 217 216 215 215 215 215 215 216 217 219 222 226 230 233 237 242 245 250 254 258 262 265 266 267 266 265 264 262 260 258 257 256 256 256 257 259 260 263 268 272 274 277 281 285 290 291 292 294 298 299 292 274 253 242 235 231 229 229 231 234 238 242 247 251 255 257 259 260 260 261 262 261
164 167 171 178 183 187 190 192 195 197 200 201 202 202 202 202 202 203 205 206 208 211 215 218 222 227 232 237 242 246 251 255 259 262 264 265 265 263 261 260 258 257 256 256 255 255 256 257 260 262 264 266 268 271 274 277 280 282 283 284 289 296 301 302 292 259 233 224 224 224 225 227 232 237 241 245 248 251 255 258 261 262 262 261 261 260
158 160 165 172 180 185 187 187 188 190 192 194 195 197 198 199 201 203 204 206 209 213 217 222 228 233 239 244 248 253 257 260 263 264 265 264 261 259 256 254 252 252 252 253 254 255 257 258 260 263 266 268 267 267 270 275 278 278 277 279 284 289 292 289 279 253 226 222 223 225 230 237 243 246 247 247 248 251 254 257 259 260 261 261 260 259
166 165 169 176 185 193 197 197 195 193 193 194 196 199 202 204 207 209 211 213 217 221 226 231 237 244 250 255 258 260 262 264 264 263 262 259 256 253 250 248 247 247 249 252 254 256 260 262 263 266 268 269 267 265 266 270 273 274 274 276 276 273 269 273 277 273 257 246 242 243 248 253 254 253 252 251 251 252 253 254 256 257 258 258 258 257
196 192 191 193 198 203 205 207 207 206 205 204 204 206 208 211 214 216 218 220 223 227 231 237 243 248 253 259 263 266 267 266 263 259 256 252 249 247 245 244 244 246 250 254 258 261 263 265 267 270 272 271 266 262 261 264 267 270 272 274 274 271 271 276 281 280 274 268 263 262 263 262 261 261 260 257 254 251 250 250 250 251 253 255 255 254
221 217 214 213 215 218 221 221 220 220 219 218 217 217 218 220 223 224 225 226 227 230 234 240 243 244 245 251 258 264 266 266 262 255 248 244 243 242 243 243 246 250 254 259 263 265 266 267 268 270 270 267 263 260 259 260 262 265 269 271 272 274 277 281 283 286 287 285 282 278 274 268 266 267 268 263 256 250 247 246 245 245 246 249 251 251
230 229 229 229 233 236 237 235 232 229 227 226 225 224 225 227 229 231 232 232 232 233 236 241 244 246 247 249 252 255 255 256 259 257 250 243 240 241 243 246 251 256 261 265 267 267 266 265 264 263 260 258 258 259 259 258 258 260 264 269 272 274 276 279 283 288 293 293 291 289 282 276 275 277 277 272 264 255 248 244 242 241 241 243 245 248
236 237 238 240 244 247 247 244 239 236 233 231 230 230 230 231 233 234 235 236 237 237 239 241 244 247 251 254 256 257 257 256 256 257 257 252 248 247 249 252 257 262 267 270 271 269 265 262 258 255 253 252 253 256 260 258 257 257 261 265 269 272 275 280 284 289 291 291 290 287 286 286 289 292 291 287 280 270 258 249 244 241 240 242 243 245
241 242 243 246 248 251 251 248 245 242 239 236 234 234 234 234 236 237 239 240 241 241 242 243 245 248 250 253 256 258 259 259 258 257 256 255 254 254 254 256 260 265 270 273 274 273 271 266 261 256 253 252 251 253 257 258 257 256 258 259 263 267 272 278 283 288 290 290 287 282 281 285 290 293 295 295 293 287 276 265 255 248 244 244 246 247
244 245 246 247 250 251 252 251 250 248 245 242 240 239 238 238 239 240 242 243 244 244 245 246 248 249 250 252 254 255 255 256 257 257 257 256 256 256 256 257 259 263 267 272 276 278 277 275 270 265 261 257 254 252 252 254 256 257 257 256 257 262 268 275 281 286 290 290 288 283 281 286 291 294 293 293 294 293 289 282 274 265 258 254 252 252
243 245 247 247 249 250 251 252 252 251 250 247 246 244 243 242 242 242 243 244 245 246 247 248 249 250 250 253 254 254 254 255 256 257 257 258 258 257 256 256 256 256 258 264 272 278 280 281 279 275 270 262 257 253 250 249 250 253 254 254 255 259 264 272 279 286 291 293 293 291 289 290 292 293 292 291 291 292 293 292 288 282 276 271 267 265